www.pogodaiklimat.ru

Погода и климат >> Архив погоды >> Россия >> Курская область >> Курск


АРХИВ ПОГОДЫ в Курске

Время (UTC), дата Ветер
(напр.,м/с)
 
Видим.   Явления Облачность Т
(С)
Тd
(С)
f
(%)
Тe
(С)
Тes
(С)
Комфортность P
(гПа)
Po
(гПа)
Тmin
(С)
Tmax
(С)
R
(мм)
R24
(мм)
S
(см)
12 9.07 ЮЗ 3
{12}
10 км в посл. час ливневой дождь {гроза} 9/6 600 м
[Cb cap Ci fib]
+17.3 +12.4 73 +17 +21 холодно 1005.4 976.8
15 9.07 З 3 10 км {ливн. осадки} 9/4 600 м
[Sc diur, vesp Ci sp]
+17.2 +11.3 68 +17 +19 холодно 1005.1 976.4 0.6
18 9.07 З 3
{10}
10 км слаб. ливневой дождь 9/8 600 м
[Cb cap Ci fib]
+14.5 +9.9 74 +14 +14 холодно 1005.6 976.7 +19.1 0.6
21 9.07 ЮЗ 2 10 км {ливн. осадки} 8/4 600 м
[Sc Ci fib]
+12.0 +9.9 87 +11 +11 холодно 1005.5 976.3
00 10.07 ЮЗ 2 10 км {ливн. осадки} 8/3 600 м
[Sc Ci fib]
+10.9 +9.5 91 +10 +10 холодно 1004.6 975.3
03 10.07 ЮЗ 2 10 км 9/6 600 м
[Sc Ac trans Ci fib]
+11.6 +9.9 89 +10 +11 холодно 1004.1 974.9 +10.6 0.0
06 10.07 З 3 10 км 9/8 600 м
[Sc diur, vesp Ac trans Cc]
+14.7 +11.2 80 +14 +15 холодно 1003.4 974.5 +10.6 0.0
09 10.07 З 3 10 км 9/8 600 м
[Cb calv Ac trans]
+16.4 +10.9 70 +16 +18 холодно 1003.0 974.3
12 10.07 З 2 10 км в посл. час ливневой дождь 10/10 600 м
[Cb calv]
+13.7 +12.0 89 +13 +13 очень
холодно
1003.1 974.1
15 10.07 ЮЗ 3 10 км в посл. час ливневой дождь 8/6 600 м
[Cu med, cong Ac trans Ci fib]
+16.9 +11.2 69 +17 +18 прохладно 1002.8 974.1 1
18 10.07 З 2 10 км {ливн. осадки} 6/0
[Ac trans Ci fib]
+14.3 +10.9 80 +14 +14 холодно 1003.7 974.8 +18.6 1
21 10.07 ЮЗ 2 10 км 3/0
[Ci fib]
+12.4 +11.3 93 +11 +11 холодно 1003.9 974.8
00 11.07 З 1 10 км ясно +11.1 +10.7 97 +11 +11 холодно 1003.8 974.5
03 11.07 ЮЗ 1 н/о н/о +10.8 +10.7 99 +10 +11 очень
холодно
1004.2 974.8 +10.0
06 11.07 ЮЗ 2 10 км 3/1 1000 м
[Cu hum Ci fib]
+16.7 +11.0 69 +17 +25 прохладно 1004.0 975.3 +10.0
09 11.07 ЮЗ 3 10 км 8/8 600 м
[Cb calv]
+18.7 +9.8 56 +19 +22 прохладно 1003.5 975.0
12 11.07 З 3 10 км 8/4 600 м
[Sc diur, vesp Ci fib]
+19.7 +9.1 50 +21 +26 комфорт 1003.2 974.8
15 11.07 З 3 10 км 6/4 600 м
[Cu Sc Ci fib]
+19.6 +9.7 53 +21 +22 комфорт 1003.4 975.0
18 11.07 З 1 10 км {ливн. осадки} 6/3 600 м
[Sc Ac trans Ci fib]
+15.7 +11.0 74 +16 +16 прохладно 1004.6 975.8 +21.2 0.0
21 11.07 штиль 0 10 км 3/0
[Ci fib]
+12.3 +10.3 88 +12 +12 холодно 1005.7 976.5
00 12.07 штиль 0 10 км ясно +11.4 +10.3 93 +11 +11 холодно 1005.6 976.3
03 12.07 штиль 0 10 км ясно +12.8 +11.5 92 +12 +13 холодно 1006.1 977.0 +10.6 0.0
06 12.07 ЮЗ 1 10 км 3/1 1000 м
[Cu hum Ci fib]
+18.1 +11.8 67 +19 +28 по сезону 1006.1 977.4 +10.6
09 12.07 СЗ 2 10 км 8/8 1000 м
[Cu Sc]
+18.9 +12.9 68 +20 +24 прохладно 1006.1 977.5
12 12.07 Ю 3 10 км {ливн. осадки} 8/4 1000 м
[Cu med, cong Ac As]
+22.3 +10.5 47 +24 +28 комфорт 1005.1 976.9
15 12.07 СЗ 2 10 км гроза без осадков 8/8 600 м
[Cb cap Ac As]
+19.8 +10.5 55 +22 +22 комфорт 1005.4 976.9 0.0
18 12.07 С 2 10 км гроза без осадков {ливн. осадки} 9/8 600 м
[Cb cap Ci ing]
+16.4 +12.6 78 +17 +17 прохладно 1007.3 978.4 +22.9 0.7
21 12.07 СЗ 1 10 км {гроза} 8/0
[Ci fib]
+12.7 +11.9 95 +13 +13 холодно 1007.5 978.3
00 13.07 СЗ 1 4000 м дымка {гроза} 3/0
[Ac trans Ci fib]
+11.4 +11.0 97 +11 +11 холодно 1007.7 978.3
03 13.07 СЗ 1 500 м туман 3/0
[Ci fib]
+10.7 +10.6 99 +10 +11 очень
холодно
1008.1 978.7 +10.7 0.7
06 13.07 СЗ 1 10 км {туман} 4/3 600 м
[Cu hum Ci fib]
+15.3 +11.9 80 +16 +23 прохладно 1008.4 979.4 +10.6
09 13.07 С 2 10 км 8/6 1000 м
[Cu med, cong Cc]
+18.4 +10.0 58 +19 +25 прохладно 1008.5 979.8
12 13.07 СЗ 2 10 км 9/8 600 м
[Sc diur, vesp Ci fib]
+19.6 +9.4 52 +21 +24 комфорт 1008.4 979.8
15 13.07 СЗ 1 10 км 9/6 600 м
[Sc diur, vesp Ac trans Ci fib]
+20.3 +7.4 43 +22 +23 комфорт 1008.3 979.8
18 13.07 С 1 10 км 9/8 600 м
[Sc Ac trans]
+18.0 +8.2 53 +19 +19 по сезону 1009.4 980.6 +21.7
21 13.07 СВ 1 10 км 1/1 600 м
[Sc]
+16.3 +9.6 65 +17 +17 по сезону 1010.0 981.1
00 14.07 В 1 10 км 9/9 600 м
[Sc]
+15.3 +9.1 66 +16 +16 по сезону 1010.0 980.9
03 14.07 СВ 2 10 км 3/3 600 м
[Sc]
+13.8 +8.7 71 +13 +14 холодно 1010.4 981.2 +13.6
06 14.07 ЮВ 2 10 км 3/1 1000 м
[Cu hum Ci fib]
+19.0 +10.3 57 +20 +28 по сезону 1010.4 981.7 +13.6
09 14.07 Ю 2 10 км 8/8 600 м
[Cu med, cong]
+22.1 +7.7 40 +23 +26 комфорт 1009.9 981.5
12 14.07 СЗ 1 10 км 8/4 600 м
[Sc diur, vesp Ac trans Ci fib]
+22.4 +7.8 39 +23 +29 комфорт 1009.7 981.4
15 14.07 В 1 10 км 6/3 1000 м
[Cu hum Ci fib]
+22.7 +7.3 37 +24 +26 комфорт 1009.2 980.9
18 14.07 штиль 0 10 км 4/0
[Ac trans Ci fib]
+17.7 +9.3 58 +18 +18 прохладно 1010.2 981.4 +23.0
21 14.07 ЮВ 1 10 км 3/0
[Ci fib]
+16.5 +9.1 62 +17 +17 по сезону 1010.5 981.6
00 15.07 СВ 1 10 км ясно +14.0 +9.6 75 +14 +14 прохладно 1010.2 981.0
03 15.07 штиль 0 10 км 3/0
[Ci fib]
+14.9 +10.0 72 +15 +16 прохладно 1010.0 980.9 +12.0
06 15.07 В 2 10 км 4/0
[Ci fib]
+20.4 +10.0 51 +23 +31 комфорт 1009.7 981.2 +12.0
09 15.07 В 3 10 км 8/5 1000 м
[Cu hum Ci fib]
+23.6 +7.4 35 +24 +30 комфорт 1008.7 980.5
12 15.07 Ю 2 10 км 8/8 600 м
[Cu hum Ci fib]
+25.7 +7.4 31 +26 +28 жарко 1007.8 979.8
15 15.07 Ю 2 10 км 9/8 600 м
[Sc Ac trans]
+24.6 +7.7 34 +25 +25 комфорт 1007.7 979.6
18 15.07 С 1 10 км 9/3 600 м
[Sc Ac trans Ci fib]
+19.3 +13.1 67 +22 +22 комфорт 1008.9 980.3 +26.2
21 15.07 СВ 2 10 км 8/0
[Ac trans Ci fib]
+17.2 +13.5 79 +18 +18 по сезону 1009.1 980.3
00 16.07 штиль 0 10 км 8/5 600 м
[Sc Ci fib]
+15.5 +13.2 86 +15 +15 по сезону 1008.5 979.6
03 16.07 С 3 10 км 10/8 600 м
[Sc Ac trans Ci fib]
+15.3 +12.7 84 +15 +15 прохладно 1008.7 979.8 +13.9
06 16.07 З 1 10 км слаб. ливневой дождь 10/10 600 м
[Cb cap]
+16.5 +13.7 84 +17 +17 прохладно 1008.7 979.9 +13.9 0.0
09 16.07 С 2 10 км {ливн. осадки} 9/0
[Ac As Ci fib]
+23.1 +12.8 52 +26 +35 жарко 1007.4 979.2

 

Местоположение метеостанции Курск (Курская область, Россия): широта 51.77 долгота 36.17 высота над уровнем моря 247 м.

В архиве по умолчанию представлена погода в Курске за последнюю неделю. Архивные данные за месяц целиком и за предыдущие месяцы, начиная с января 2011 года, Вы можете получить, выбрав интересующий диапазон дат из раскрывающегося списка и нажав кнопку "Ввод!".


*Определитесь, кто Вы:
робот инопланетянин человек

Внимание! Время в таблицах - всемирное. Для получения местного времени необходимо прибавить поправку, которая равна 3 ч.

Смотрите также архив погоды в соседних городах и на ближайших метеорологических станциях:

Погода в Курчатове (Курская область, Россия) (36 км)
Погода в Фатеже (Курская область, Россия) (40 км)
Погода в Понырях (Курская область, Россия) (62 км)
Погода в Обояни (Курская область, Россия) (64 км)
Погода в Тиме (Курская область, Россия) (68 км)
Погода в Железногорске (Курская область, Россия) (85 км)
Погода в Рыльск (Курская область, Россия) (105 км)
Погода в Богородицком (Белгородская область, Россия) (106 км)
Погода в Дмитровск-Орловский (Орловская область, Россия) (107 км)
Погода в Готне (Белгородская область, Россия) (111 км)

Пояснения к столбцам:

Ветер - указаны скорость ветра в м/с - средняя за 10 мин, порывы в срок и между сроками (в фигурных скобках) и направление, откуда дует ветер: С - северный, СВ - северо-восточный, В - восточный, ЮВ - юго-восточный, Ю - южный, ЮЗ - юго-западный, З - западный, СЗ - северо-западный.
Видимость - горизонтальная дальность видимости в метрах или километрах. При видимости от 1 до 10 км при отсутствии осадков обычно наблюдается дымка, при ухудшении видимости до 1 км и менее - туман. В сухую погоду видимость может ухудшаться дымом, пылью или мглою.
Явления - указаны атмосферные явления, наблюдавшиеся в срок или в последний час перед сроком; фигурными скобками обозначены явления, наблюдавшиеся между сроками (за 1-3 часа до срока); квадратными скобками обозначены град или гололедные отложения с указанием их диаметра в мм.
Облачность - указаны через наклонную черту общая и нижняя облачность в баллах и высота нижней границы облаков в метрах; квадратными скобками обозначены формы облаков: Ci - перистые, Cs - перисто-слоистые, Cc - перисто-кучевые, Ac - высококучевые, As - высокослоистые, Sc - слоисто-кучевые, Ns - слоисто-дождевые, Cu - кучевые, Cb - кучево-дождевые. Подробнее классификацию облаков см. в Атласе облаков (PDF).
T - Температура воздуха - температура, измеренная на высоте 2 м над землей.
Td - Температура точки росы - температура, при понижении до которой содержащийся в воздухе водяной пар достигнет насыщения.
f - Относительная влажность воздуха - влажноcть воздуха, измеренная на высоте 2 м над землей.
Te - Эффективная температура - температура, которую ощущает одетый по сезону человек в тени. Характеристика душности погоды. При расчете учитывается влияние влажности воздуха и скорости ветра на теплоощущения человека.
Tes - Эффективная температура на солнце - температура, которую ощущает человек, с поправкой на солнечный нагрев. Характеристика знойности погоды. Зависит от высоты солнца над горизонтом, облачности и скорости ветра. Ночью, в пасмурную погоду, а также при ветре 12 м/с и более поправка равна нулю.
P - Атмосферное давление - приведенное к уровню моря атмосферное давление.
Po - Атмосферное давление - измеренное на уровне метеостанции атмосферное давление.
Tmin - Минимальная температура - минимум температуры воздуха на высоте 2 м над землей.
Tmax - Максимальная температура - максимум температуры воздуха на высоте 2 м над землей.
R - Количество осадков - Количество выпавших осадков за период времени, мм. При наведении курсора мыши на число - период времени, за который выпало указанное количество осадков.
R24 - Количество осадков - Количество выпавших осадков за 24 часа, мм.
S - Снежный покров - Высота снежного покрова, см. При наведении курсора мыши на число - состояние снежного покрова и степень покрытия местности в баллах.